AJISAI (EGS)

Last updated on Sun Jun 21 2026 00:02:14 GMT+0000 (Coordinated Universal Time)

1 16908U 86061A 26171.43257355 -.00000100 00000+0 -18933-4 0 9996 2 16908 50.0070 137.4149 0011194 188.8064 260.9104 12.44516761480795
UTC large
Height (km)
Speed (km/s)
/
Latitude / Longitude
Inclination (degrees)
Orbital Period (minutes)
Azimuth
Elevation
Range (km)
Doppler Factor

Next 0 passes for location: London (51.5072 / 0.1276)

No passes found over London.
AJISAI (EGS)